Location: Beaurecueil
(43.5122°N, 5.5450°E)
Time: 14:33:51
(UTC+00:00)

Daily predictions for brighter satellites

Satellite Brightness Start Highest point End
(mag) Time Altitude Azimuth Time Altitude Azimuth Time Altitude Azimuth
USA 229 DEB 3.7 16:33:54 10° SSW 16:40:24 74° ESE 16:47:14 10° NE
USA 229 3.7 16:34:01 10° SSW 16:40:31 74° ESE 16:47:19 10° NE
PSLV R/B 4.0 16:37:20 10° NNE 16:41:35 78° ESE 16:45:46 10° S
Cosmos 1356 Rocket 4.0 16:38:36 10° SSE 16:42:25 36° E 16:46:19 10° NNE
Okean O Rocket 2.8 16:40:03 10° S 16:44:18 49° W 16:48:35 10° NNW
NOSS 3-1 (C) 3.3 16:39:31 10° SSW 16:44:56 71° ESE 16:51:11 10° NE
Cosmos 1500 Rocket 3.8 16:40:34 10° N 16:44:56 78° W 16:49:16 10° S
NOSS 3-1 (A) 3.7 16:40:41 10° S 16:45:51 45° ESE 16:51:42 10° NE
Cosmos 2344 4.3 16:39:27 10° WSW 16:46:44 52° NW 16:54:51 10° NNE
PSLV R/B 3.5 16:44:20 10° W 16:46:46 43° S 16:49:12 10° ESE
Cosmos 1633 Rocket 4.2 16:45:06 10° NNE 16:48:36 23° ENE 16:52:06 10° SE
H-2A R/B 2.9 16:47:04 10° SSE 16:50:47 49° ENE 16:54:28 10° N
Cosmos 1238 Rocket 2.8 16:47:02 10° N 16:51:14 82° W 16:54:42 10° S
Cosmos 2263 Rocket 4.0 16:49:54 10° NNE 16:51:18 11° NE 16:52:41 10° NE
Cosmos 2369 4.3 16:47:25 10° S 16:52:34 38° ESE 16:57:46 10° NE
AQUARIUS 4.2 16:49:47 10° SSE 16:54:12 61° ENE 16:58:40 10° N
SeaSat 1 3.1 16:50:01 10° ESE 16:54:27 34° NE 16:58:54 10° N
Cosmos 1464 Rocket 4.3 16:50:08 10° N 16:55:56 41° ENE 17:01:40 10° SE
Lacrosse 4 Rocket 1.8 16:52:14 10° S 16:56:05 42° ESE 16:59:56 10° NE
Envisat 3.5 16:52:15 10° SE 16:56:52 37° ENE 17:01:30 10° N
Cosmos 1607 4.0 16:50:48 10° NNW 16:57:03 87° NE 17:03:20 10° SSE
NOAA 12 4.4 16:52:13 10° SE 16:57:17 47° ENE 17:02:23 10° N
Sich 1 3.3 16:53:51 10° N 16:58:02 44° ENE 17:02:13 10° SSE
ASTEX 1 4.3 16:54:42 10° N 16:59:35 54° W 17:04:25 10° SSW
Cosmos 1151 Rocket 4.4 16:56:29 10° SE 16:59:35 19° E 17:02:44 10° NE
CZ-4 R/B 2.6 16:57:45 10° ESE 17:00:52 21° ENE 17:03:57 10° NNE
Cosmos 1666 Rocket 4.1 16:58:01 10° N 17:02:04 36° ENE 17:06:04 10° SE
Cosmos 2082 3.9 16:56:41 10° NNW 17:02:09 49° ENE 17:07:35 10° SE
ATLAS 5 CENTAUR R/B 2.5 16:56:50 10° NW 17:02:43 90° SW 17:09:25 10° SE
GEOS 3 Rocket 3.7 16:57:46 10° NE 17:02:58 62° SE 17:08:11 10° SSW
COSMO-SKYMED 1 3.6 16:59:22 10° NE 17:03:02 26° E 17:06:39 10° SSE
ERBS 2.2 17:00:20 10° SW 17:03:39 84° NW 17:06:38 12° NE
Cosmos 1697 Rocket 3.1 16:59:55 10° S 17:05:14 44° ESE 17:10:35 10° NE
Cosmos 1633 3.0 17:02:52 10° N 17:06:19 39° ENE 17:09:44 10° SSE
Cosmos 2278 4.2 17:06:13 10° S 17:11:27 40° ESE 17:16:43 10° NE
Cosmos 2221 4.2 17:11:42 10° SW 17:15:41 36° WNW 17:19:43 10° N
TELKOM 3 4.3 17:21:14 10° WNW 17:23:13 33° SW 17:24:55 12° SSE
Geosat 3.9 17:19:47 10° NNE 17:24:50 73° ESE 17:29:50 10° SSW
NOSS 2-3 (C) 3.8 17:21:08 10° SSW 17:25:20 57° ESE 17:28:59 17° NE
Cosmos 1656 3.9 17:21:40 10° SSW 17:27:13 72° WNW 17:32:43 10° NNE
YAOGAN 1 3.2 17:24:15 10° SE 17:28:06 32° ENE 17:31:57 10° N
Cosmos 2112 Rocket 4.2 17:24:47 10° S 17:29:45 49° ESE 17:34:25 12° NNE
Cosmos 1862 3.2 17:28:39 10° N 17:32:38 68° E 17:36:36 10° SSE
Cosmos 1470 Rocket 4.1 17:29:02 10° N 17:33:12 36° ENE 17:37:19 10° SE
Meteor 2-11 Rocket 4.5 17:28:28 10° N 17:34:30 57° ENE 17:40:31 10° SSE
YAOGAN 6 2.6 17:32:21 10° SSE 17:35:44 50° ENE 17:39:08 10° N
Cosmos 1680 Rocket 3.4 17:31:06 10° S 17:36:15 66° ESE 17:41:26 10° NNE
COBE Rocket 4.1 17:34:57 10° N 17:39:43 67° WNW 17:44:20 10° SSW
Ariane Rocket 4.1 17:40:34 23° NE 17:40:34 23° NE 17:43:57 10° NNE
CSL-04 Debris 4.3 17:38:30 10° SE 17:43:49 53° ENE 17:49:09 10° N
SKYMED 2 3.5 17:46:58 10° NNE 17:51:20 85° E 17:55:40 10° SSW
Cosmos 2034 Rocket 4.0 17:47:53 10° N 17:54:17 83° E 18:00:40 10° S
Okean-O 3.8 17:52:03 10° S 17:56:18 45° W 18:00:35 10° NNW
CSL-04 Rocket 3.5 17:53:27 10° SSE 17:58:46 69° ENE 18:04:03 10° N
SL-16 R/B 4.0 18:02:23 10° SSE 18:03:46 16° SE 18:03:46 16° SE
Cosmos 1624 Rocket 3.9 18:02:40 10° NNW 18:08:01 68° ENE 18:11:43 20° SSE
Cosmos 2056 Rocket 3.3 18:03:31 10° NNW 18:08:39 66° ENE 18:11:21 28° SE
Cosmos 1980 Rocket 2.1 18:04:32 10° SSW 18:10:12 82° ESE 18:13:25 27° NNE
SL-8 R/B 4.4 18:06:40 10° SSW 18:11:01 36° SE 18:11:01 36° SE
Cosmos 1634 Rocket 4.0 18:07:33 10° N 18:13:34 51° ENE 18:19:32 10° SSE
APEX 3.2 18:10:58 10° SSW 18:14:02 59° WSW 18:14:02 59° WSW
Cosmos 2322 Rocket 4.3 18:11:07 10° SSE 18:11:21 11° SSE 18:11:21 11° SSE
Cosmos 2297 Rocket 4.5 18:11:38 10° NW 18:16:08 25° WSW 18:20:39 10° SSW
USA 215 3.8 18:14:46 35° NE 18:16:21 40° NNE 18:22:20 10° NW
Cosmos 2227 Rocket 4.3 18:11:47 10° NW 18:16:27 27° WSW 18:21:06 10° SSW
Tsikada Rocket 4.0 18:11:40 10° S 18:18:02 88° E 18:24:30 10° N
Cosmos 1816 Rocket 4.5 18:11:48 10° S 18:18:08 87° W 18:24:34 10° N
Cosmos 2228 Rocket 4.0 18:16:44 10° S 18:19:23 35° SSE 18:19:23 35° SSE
BREEZE-M DEB (TANK) 3.5 18:23:37 10° WNW 18:28:05 33° NNW 18:28:05 33° NNW
SeaSat 1 4.0 18:27:24 10° S 18:31:54 35° WSW 18:36:26 10° NW
Lacrosse 4 Rocket 3.6 18:31:51 10° W 18:34:56 20° NW 18:36:36 16° NNW
CZ-4 R/B 3.0 18:31:53 10° SSW 18:35:40 34° W 18:39:27 10° NNW
DMSP B5D1-3 4.5 18:35:01 47° N 18:36:33 85° WNW 18:41:42 10° SSW
Cosmos 2263 Rocket 2.7 18:31:04 10° NNW 18:35:08 43° NNE 18:35:08 43° NNE
Cosmos 1151 Rocket 4.5 18:32:48 10° SW 18:36:51 37° WNW 18:40:55 10° N
COSMO-SKYMED 1 4.4 18:35:22 10° N 18:39:10 30° WNW 18:42:57 10° SW
Cosmos 1933 Rocket 4.0 18:36:45 10° NNW 18:41:01 58° W 18:41:19 56° WSW
Cosmos 1515 Rocket 4.4 18:38:06 10° SSW 18:42:21 48° WNW 18:43:38 37° NNW
Cosmos 1697 Rocket 4.3 18:44:25 10° WSW 18:49:22 30° NW 18:53:17 15° N
CENTAUR R/B 4.1 19:05:16 10° NNW 19:10:25 29° NNE 19:10:25 29° NNE
ATLAS 3B R/B 4.4 19:26:09 10° NNW 19:28:31 19° N 19:28:31 19° N
Cosmos 1980 Rocket 4.4 19:50:59 10° W 19:54:56 19° NW 19:55:14 19° NW
